CW2548 Weather Reports


time (UTC)temp
C
wind
direction
speed
KPH
gust
KPH
rain 1hr
cm
rain 24hr
cm
rain mn
cm
humidity
%
barometer
mb
20260902225247 37 15 4.8 6.4 0.00 0.36 0.00 43 1011.6
20260902224246 38 126 6.4 9.7 0.00 0.36 0.00 42 1011.7
20260902223306 38 175 3.2 9.7 0.00 0.36 0.00 44 1011.8
20260902222326 37 147 9.7 12.9 0.00 0.36 0.00 45 1011.9
20260902221246 37 160 11.3 14.5 0.00 0.36 0.00 46 1012.0
20260902220246 36 80 6.4 9.7 0.00 0.36 0.00 47 1011.9
20260902215246 37 120 4.8 8.0 0.00 0.36 0.00 46 1012.2
20260902214246 37 196 4.8 8.0 0.00 0.36 0.00 47 1012.2
20260902213247 37 56 3.2 3.2 0.00 0.36 0.00 47 1012.3
20260902212247 37 171 8.0 12.9 0.00 0.36 0.00 47 1012.5
20260902211246 37 0.0 0.0 0.00 0.36 0.00 48 1012.6
20260902210246 36 0.0 0.0 0.00 0.36 0.00 49 1012.7
20260902205246 37 144 8.0 14.5 0.00 0.36 0.00 48 1012.9
20260902204246 37 154 14.5 20.9 0.00 0.36 0.00 48 1012.8
20260902203246 37 112 1.6 1.6 0.00 0.36 0.00 47 1013.1
20260902202246 37 155 3.2 4.8 0.00 0.36 0.00 50 1013.2
20260902201246 36 273 1.6 3.2 0.00 0.36 0.00 49 1013.4
20260902200246 37 192 4.8 8.0 0.00 0.36 0.00 49 1013.5
20260902195246 36 225 1.6 1.6 0.00 0.36 0.00 49 1013.8
20260902194246 36 171 4.8 6.4 0.00 0.36 0.00 50 1014.0
20260902193246 36 327 1.6 1.6 0.00 0.36 0.00 51 1014.1
20260902192246 35 251 1.6 3.2 0.00 0.36 0.00 53 1014.3
20260902191249 35 135 11.3 12.9 0.00 0.36 0.00 54 1014.5
20260902190246 35 126 8.0 9.7 0.00 0.36 0.00 53 1014.6
20260902185246 35 132 8.0 9.7 0.00 0.36 0.00 53 1015.0
20260902184246 35 179 8.0 12.9 0.00 0.36 0.00 54 1015.1
20260902183327 34 143 1.6 8.0 0.00 0.36 0.00 56 1015.2
20260902182307 34 129 11.3 16.1 0.00 0.36 0.00 56 1015.3
20260902181246 34 127 8.0 11.3 0.00 0.36 0.00 56 1015.5
20260902180306 33 139 11.3 14.5 0.00 0.36 0.00 57 1015.6
20260902175247 33 149 6.4 19.3 0.00 0.36 0.00 57 1015.7
20260902174307 33 157 9.7 16.1 0.00 0.36 0.00 59 1015.7
20260902173246 33 133 11.3 14.5 0.00 0.36 0.00 59 1015.8
20260902172247 33 123 12.9 19.3 0.00 0.36 0.00 59 1015.9
20260902171246 32 127 12.9 20.9 0.00 0.36 0.00 59 1015.9
20260902170247 32 126 9.7 11.3 0.00 0.36 0.00 63 1015.9
20260902165247 31 129 8.0 9.7 0.00 0.36 0.00 65 1016.0
20260902164247 31 128 9.7 14.5 0.00 0.36 0.00 65 1016.1
20260902163246 31 137 9.7 12.9 0.00 0.36 0.00 65 1016.1
20260902162246 31 112 9.7 12.9 0.00 0.36 0.00 64 1016.0
20260902161246 31 137 11.3 14.5 0.00 0.36 0.00 66 1016.0
20260902160246 30 128 12.9 16.1 0.00 0.36 0.00 65 1016.0
20260902155246 30 132 8.0 11.3 0.00 0.36 0.00 66 1015.9
20260902154308 30 130 4.8 12.9 0.00 0.36 0.00 70 1015.8
20260902153247 30 122 8.0 8.0 0.00 0.36 0.00 74 1015.8
20260902152246 29 160 6.4 8.0 0.00 0.36 0.00 75 1015.7
20260902151307 28 114 11.3 16.1 0.00 0.36 0.00 77 1015.7
20260902150246 28 105 4.8 8.0 0.00 0.36 0.00 80 1015.7
20260902145247 28 119 8.0 12.9 0.00 0.36 0.00 82 1015.8
20260902144246 28 169 8.0 9.7 0.00 0.36 0.00 83 1015.7
20260902143246 27 128 6.4 12.9 0.00 0.36 0.00 84 1015.9
20260902142246 27 127 11.3 12.9 0.00 0.36 0.00 83 1015.9
20260902141246 28 119 8.0 9.7 0.00 0.36 0.00 84 1015.8
20260902140246 27 103 3.2 4.8 0.00 0.36 0.00 87 1015.6
20260902135246 27 104 3.2 8.0 0.00 0.36 0.00 86 1015.5
20260902134246 27 141 8.0 14.5 0.00 0.36 0.00 86 1015.4
20260902133246 28 114 8.0 9.7 0.00 0.36 0.00 86 1015.2
20260902132246 28 110 4.8 8.0 0.00 0.36 0.00 86 1015.0
20260902131246 28 124 4.8 6.4 0.00 0.36 0.00 86 1014.9
20260902130246 28 152 3.2 8.0 0.00 0.36 0.00 85 1014.8
20260902125246 28 130 6.4 9.7 0.00 0.36 0.00 85 1014.9
20260902124246 28 130 4.8 8.0 0.00 0.36 0.00 84 1014.8
20260902123308 28 155 6.4 8.0 0.00 0.36 0.00 84 1014.8
20260902122246 28 149 1.6 3.2 0.00 0.36 0.00 85 1014.7
20260902121328 28 163 6.4 9.7 0.00 0.36 0.00 85 1014.8
20260902120246 28 144 1.6 6.4 0.00 0.36 0.00 86 1014.7
20260902115246 28 126 4.8 8.0 0.00 0.36 0.00 86 1014.7
20260902114246 28 116 1.6 4.8 0.00 0.36 0.00 86 1014.7
20260902113307 28 129 3.2 4.8 0.00 0.36 0.00 86 1014.9
20260902112306 28 164 3.2 4.8 0.00 0.36 0.00 86 1014.8
20260902111246 28 144 3.2 6.4 0.00 0.36 0.00 86 1014.8
20260902110246 28 167 4.8 6.4 0.00 0.36 0.00 85 1014.8
20260902105247 28 127 1.6 4.8 0.00 0.36 0.00 85 1014.9
20260902104246 28 145 4.8 4.8 0.00 0.36 0.00 84 1014.8
20260902103246 28 145 3.2 4.8 0.00 0.36 0.00 84 1014.6
20260902101307 28 151 1.6 3.2 0.00 0.36 0.00 83 1014.7
20260902100246 28 192 3.2 6.4 0.00 0.36 0.00 83 1014.7
20260902095246 28 161 3.2 6.4 0.00 0.36 0.00 82 1014.7
20260902094246 28 165 4.8 8.0 0.00 0.36 0.00 82 1014.8
20260902093246 28 146 3.2 6.4 0.00 0.36 0.00 81 1014.9
20260902092246 28 154 3.2 4.8 0.00 0.36 0.00 81 1014.9
20260902091306 28 153 3.2 4.8 0.00 0.36 0.00 81 1014.8
20260902090247 28 152 3.2 3.2 0.00 0.36 0.00 81 1015.0
20260902085246 28 161 6.4 8.0 0.00 0.36 0.00 81 1015.0
20260902084306 28 171 4.8 6.4 0.00 0.36 0.00 81 1015.1
20260902083247 28 157 6.4 8.0 0.00 0.36 0.00 81 1015.1
20260902082246 28 151 6.4 8.0 0.00 0.36 0.00 81 1015.2
20260902081247 28 164 6.4 8.0 0.00 0.36 0.00 80 1015.3
20260902080247 28 150 6.4 9.7 0.00 0.36 0.00 79 1015.2
20260902075246 28 146 3.2 3.2 0.00 0.36 0.00 79 1015.2
20260902074246 28 155 4.8 6.4 0.00 0.36 0.00 79 1015.0
20260902073246 29 146 1.6 4.8 0.00 0.36 0.00 78 1015.0
20260902072247 29 133 6.4 8.0 0.00 0.36 0.00 77 1015.0
20260902071247 29 125 4.8 8.0 0.00 0.36 0.00 76 1015.0
20260902070246 29 142 3.2 6.4 0.00 0.36 0.00 76 1015.1
20260902065246 29 127 3.2 4.8 0.00 0.36 0.00 76 1015.0
20260902064246 29 131 1.6 1.6 0.00 0.36 0.00 75 1014.9
20260902063416 29 187 1.6 4.8 0.00 0.36 0.00 75 1014.7
20260902062416 29 147 4.8 6.4 0.00 0.36 0.00 75 1014.7
20260902060416 30 145 4.8 6.4 0.00 0.36 0.00 75 1014.8
20260902055416 30 144 4.8 6.4 0.00 0.36 0.00 75 1014.9
20260902054416 30 160 1.6 4.8 0.00 0.36 0.00 75 1014.7
20260902053416 30 165 4.8 6.4 0.00 0.36 0.00 74 1014.7
20260902052416 30 164 3.2 4.8 0.00 0.36 0.00 73 1014.8
20260902051418 30 146 3.2 6.4 0.00 0.36 0.00 71 1014.8
20260902050416 30 169 6.4 8.0 0.00 0.36 0.00 71 1014.8
20260902045416 30 166 3.2 3.2 0.00 0.36 0.00 72 1014.8
20260902044417 30 188 4.8 6.4 0.00 0.36 0.00 71 1014.6
20260902043416 30 200 1.6 3.2 0.00 0.36 0.00 72 1014.5
20260902042417 30 203 1.6 3.2 0.00 0.36 0.00 71 1014.5
20260902041416 31 218 3.2 4.8 0.00 0.36 0.00 71 1014.4
20260902040417 31 156 3.2 4.8 0.00 0.36 0.00 70 1014.1
20260902035417 31 191 1.6 3.2 0.00 0.36 0.00 69 1014.0
20260902034438 31 151 3.2 3.2 0.00 0.36 0.00 68 1013.7
20260902033416 30 162 3.2 4.8 0.00 0.36 0.00 67 1013.6
20260902032417 30 146 4.8 4.8 0.00 0.36 0.00 66 1013.3
20260902031417 30 185 3.2 3.2 0.00 0.36 0.00 65 1013.1